| time (UTC) | temp F | wind direction | speed knots | gust knots | rain 1hr in | rain 24hr in | rain mn in | humidity % | barometer mb |
| 20260506192604 | 64 | 262 | 2.6 | 7.0 | 0.00 | 0.07 | 0.07 | 92 | 1007.4 |
| 20260506192105 | 64 | 217 | 1.7 | 4.3 | 0.00 | 0.07 | 0.07 | 92 | 1007.5 |
| 20260506191604 | 64 | 222 | 1.7 | 7.0 | 0.00 | 0.07 | 0.07 | 92 | 1007.5 |
| 20260506191105 | 63 | 220 | 1.7 | 4.3 | 0.00 | 0.07 | 0.07 | 92 | 1007.7 |
| 20260506190605 | 63 | 275 | 1.7 | 4.3 | 0.00 | 0.07 | 0.07 | 92 | 1007.7 |
| 20260506185605 | 63 | 264 | 2.6 | 6.1 | 0.01 | 0.07 | 0.07 | 91 | 1007.7 |
| 20260506185105 | 63 | 245 | 3.5 | 10.4 | 0.01 | 0.07 | 0.07 | 91 | 1007.8 |
| 20260506184604 | 63 | 249 | 1.7 | 4.3 | 0.02 | 0.07 | 0.07 | 91 | 1007.8 |
| 20260506184105 | 63 | 265 | 1.7 | 4.3 | 0.02 | 0.07 | 0.07 | 91 | 1007.9 |
| 20260506183605 | 63 | 270 | 2.6 | 7.0 | 0.02 | 0.07 | 0.07 | 91 | 1007.8 |
| 20260506182105 | 63 | 281 | 3.5 | 8.7 | 0.02 | 0.07 | 0.07 | 90 | 1007.9 |
| 20260506181605 | 63 | 272 | 2.6 | 10.4 | 0.02 | 0.07 | 0.07 | 90 | 1007.8 |
| 20260506180105 | 63 | 248 | 3.5 | 7.0 | 0.02 | 0.07 | 0.07 | 90 | 1008.0 |
| 20260506175604 | 63 | 280 | 1.7 | 7.8 | 0.02 | 0.06 | 0.06 | 90 | 1008.0 |
| 20260506175105 | 63 | 261 | 3.5 | 8.7 | 0.02 | 0.06 | 0.06 | 90 | 1008.1 |
| 20260506174606 | 63 | 305 | 1.7 | 7.0 | 0.01 | 0.05 | 0.05 | 90 | 1008.0 |
| 20260506174104 | 63 | 252 | 3.5 | 10.4 | 0.01 | 0.05 | 0.05 | 90 | 1008.0 |
| 20260506173604 | 63 | 279 | 3.5 | 10.4 | 0.01 | 0.05 | 0.05 | 90 | 1008.0 |
| 20260506173104 | 63 | 291 | 1.7 | 6.1 | 0.02 | 0.05 | 0.05 | 90 | 1008.2 |
| 20260506172605 | 63 | 269 | 1.7 | 2.6 | 0.02 | 0.05 | 0.05 | 90 | 1008.1 |
| 20260506171605 | 63 | 285 | 0.9 | 4.3 | 0.03 | 0.05 | 0.05 | 89 | 1007.9 |
| 20260506171104 | 63 | 263 | 1.7 | 5.2 | 0.04 | 0.05 | 0.05 | 89 | 1008.1 |
| 20260506170605 | 63 | 219 | 1.7 | 4.3 | 0.04 | 0.05 | 0.05 | 89 | 1008.0 |
| 20260506170104 | 63 | 235 | 0.9 | 5.2 | 0.04 | 0.05 | 0.05 | 89 | 1008.0 |
| 20260506165105 | 64 | 190 | 0.0 | 1.7 | 0.04 | 0.04 | 0.04 | 89 | 1008.0 |
| 20260506164604 | 64 | 190 | 1.7 | 2.6 | 0.04 | 0.04 | 0.04 | 88 | 1008.1 |
| 20260506164112 | 64 | 220 | 0.9 | 2.6 | 0.04 | 0.04 | 0.04 | 88 | 1008.2 |
| 20260506163604 | 64 | 221 | 0.0 | 0.0 | 0.04 | 0.04 | 0.04 | 87 | 1008.5 |
| 20260506163104 | 64 | 221 | 0.0 | 0.0 | 0.03 | 0.03 | 0.03 | 87 | 1008.8 |
| 20260506162105 | 64 | 221 | 0.0 | 0.9 | 0.02 | 0.02 | 0.02 | 86 | 1009.1 |
| 20260506161108 | 64 | 221 | 0.0 | 0.0 | 0.01 | 0.01 | 0.01 | 85 | 1009.1 |
| 20260506160105 | 65 | 220 | 0.0 | 1.7 | 0.01 | 0.01 | 0.01 | 83 | 1009.1 |
| 20260506155605 | 65 | 216 | 0.9 | 5.2 | 0.01 | 0.01 | 0.01 | 82 | 1009.1 |
| 20260506155104 | 65 | 229 | 2.6 | 8.7 | 0.00 | 0.00 | 0.00 | 81 | 1009.1 |
| 20260506154605 | 66 | 256 | 0.9 | 5.2 | 0.00 | 0.00 | 0.00 | 81 | 1009.2 |
| 20260506154105 | 66 | 249 | 1.7 | 4.3 | 0.00 | 0.00 | 0.00 | 80 | 1009.2 |
| 20260506153604 | 66 | 225 | 1.7 | 4.3 | 0.00 | 0.00 | 0.00 | 80 | 1009.1 |
| 20260506153104 | 66 | 268 | 0.9 | 8.7 | 0.00 | 0.00 | 0.00 | 79 | 1009.1 |
| 20260506152604 | 67 | 222 | 1.7 | 7.8 | 0.00 | 0.00 | 0.00 | 78 | 1009.2 |
| 20260506152104 | 67 | 275 | 1.7 | 5.2 | 0.00 | 0.00 | 0.00 | 76 | 1009.3 |
| 20260506151604 | 67 | 251 | 2.6 | 5.2 | 0.00 | 0.00 | 0.00 | 75 | 1009.4 |
| 20260506151105 | 67 | 265 | 2.6 | 7.0 | 0.00 | 0.00 | 0.00 | 75 | 1009.4 |
| 20260506150605 | 67 | 281 | 2.6 | 7.8 | 0.00 | 0.00 | 0.00 | 75 | 1009.4 |
| 20260506150105 | 68 | 263 | 1.7 | 7.8 | 0.00 | 0.00 | 0.00 | 75 | 1009.4 |
| 20260506145604 | 68 | 246 | 3.5 | 7.8 | 0.00 | 0.00 | 0.00 | 74 | 1009.3 |
| 20260506145105 | 68 | 197 | 0.9 | 2.6 | 0.00 | 0.00 | 0.00 | 74 | 1009.3 |
| 20260506144604 | 68 | 241 | 1.7 | 6.1 | 0.00 | 0.00 | 0.00 | 74 | 1009.4 |
| 20260506144105 | 68 | 235 | 1.7 | 6.1 | 0.00 | 0.00 | 0.00 | 74 | 1009.3 |
| 20260506143605 | 68 | 246 | 0.9 | 2.6 | 0.00 | 0.00 | 0.00 | 74 | 1009.3 |
| 20260506143106 | 68 | 279 | 1.7 | 7.8 | 0.00 | 0.00 | 0.00 | 74 | 1009.3 |
| 20260506142106 | 68 | 279 | 0.9 | 4.3 | 0.00 | 0.00 | 0.00 | 74 | 1009.4 |
| 20260506141605 | 68 | 214 | 2.6 | 8.7 | 0.00 | 0.00 | 0.00 | 74 | 1009.5 |
| 20260506140104 | 68 | 260 | 0.9 | 7.0 | 0.00 | 0.00 | 0.00 | 75 | 1009.6 |
| 20260506135604 | 67 | 253 | 1.7 | 7.0 | 0.00 | 0.00 | 0.00 | 75 | 1009.7 |
| 20260506135105 | 67 | 243 | 2.6 | 7.8 | 0.00 | 0.00 | 0.00 | 76 | 1009.7 |
| 20260506134604 | 67 | 273 | 2.6 | 7.0 | 0.00 | 0.00 | 0.00 | 75 | 1009.6 |
| 20260506134104 | 67 | 234 | 2.6 | 7.0 | 0.00 | 0.00 | 0.00 | 76 | 1009.5 |
| 20260506133604 | 67 | 211 | 2.6 | 6.1 | 0.00 | 0.00 | 0.00 | 76 | 1009.4 |
| 20260506132605 | 67 | 242 | 4.3 | 7.8 | 0.00 | 0.00 | 0.00 | 75 | 1009.3 |
| 20260506131605 | 67 | 256 | 2.6 | 6.1 | 0.00 | 0.00 | 0.00 | 76 | 1009.5 |
| 20260506131104 | 67 | 240 | 2.6 | 13.0 | 0.00 | 0.00 | 0.00 | 76 | 1009.4 |
| 20260506130604 | 67 | 239 | 2.6 | 7.8 | 0.00 | 0.00 | 0.00 | 76 | 1009.1 |
| 20260506130104 | 67 | 271 | 4.3 | 7.8 | 0.00 | 0.00 | 0.00 | 76 | 1009.2 |
| 20260506125105 | 67 | 263 | 4.3 | 8.7 | 0.00 | 0.00 | 0.00 | 76 | 1009.1 |
| 20260506124604 | 67 | 260 | 2.6 | 11.3 | 0.00 | 0.00 | 0.00 | 76 | 1009.2 |
| 20260506124105 | 67 | 232 | 2.6 | 11.3 | 0.00 | 0.00 | 0.00 | 76 | 1009.3 |
| 20260506123605 | 67 | 275 | 3.5 | 8.7 | 0.00 | 0.00 | 0.00 | 76 | 1009.4 |
| 20260506123105 | 66 | 247 | 1.7 | 8.7 | 0.00 | 0.00 | 0.00 | 76 | 1009.4 |
| 20260506122604 | 66 | 282 | 4.3 | 7.8 | 0.00 | 0.00 | 0.00 | 76 | 1009.4 |
| 20260506122105 | 66 | 264 | 2.6 | 10.4 | 0.00 | 0.00 | 0.00 | 76 | 1009.4 |
| 20260506121604 | 66 | 234 | 2.6 | 7.0 | 0.00 | 0.00 | 0.00 | 76 | 1009.3 |
| 20260506121104 | 66 | 290 | 5.2 | 10.4 | 0.00 | 0.00 | 0.00 | 76 | 1009.4 |
| 20260506120605 | 66 | 252 | 5.2 | 10.4 | 0.00 | 0.00 | 0.00 | 76 | 1009.5 |
| 20260506115605 | 66 | 271 | 4.3 | 8.7 | 0.00 | 0.00 | 0.00 | 76 | 1009.6 |
| 20260506115105 | 66 | 276 | 1.7 | 13.0 | 0.00 | 0.00 | 0.00 | 77 | 1009.7 |
| 20260506114605 | 66 | 251 | 4.3 | 10.4 | 0.00 | 0.00 | 0.00 | 77 | 1009.7 |
| 20260506114105 | 66 | 272 | 1.7 | 4.3 | 0.00 | 0.00 | 0.00 | 77 | 1009.6 |
| 20260506113605 | 66 | 237 | 2.6 | 5.2 | 0.00 | 0.00 | 0.00 | 77 | 1009.4 |
| 20260506113105 | 66 | 263 | 1.7 | 11.3 | 0.00 | 0.00 | 0.00 | 78 | 1009.4 |
| 20260506112605 | 66 | 258 | 6.1 | 11.3 | 0.00 | 0.00 | 0.00 | 77 | 1009.5 |
| 20260506111604 | 66 | 278 | 1.7 | 7.0 | 0.00 | 0.00 | 0.00 | 78 | 1009.5 |
| 20260506111105 | 66 | 192 | 1.7 | 5.2 | 0.00 | 0.01 | 0.00 | 78 | 1009.3 |
| 20260506110604 | 66 | 240 | 4.3 | 12.2 | 0.00 | 0.01 | 0.00 | 78 | 1009.3 |
| 20260506110105 | 66 | 220 | 1.7 | 7.8 | 0.00 | 0.01 | 0.00 | 78 | 1009.2 |
| 20260506105604 | 66 | 243 | 2.6 | 10.4 | 0.00 | 0.02 | 0.00 | 78 | 1009.3 |
| 20260506104605 | 66 | 254 | 2.6 | 11.3 | 0.00 | 0.02 | 0.00 | 78 | 1009.3 |
| 20260506104104 | 66 | 275 | 2.6 | 10.4 | 0.00 | 0.02 | 0.00 | 77 | 1009.3 |
| 20260506103606 | 66 | 247 | 3.5 | 7.0 | 0.00 | 0.02 | 0.00 | 77 | 1009.2 |
| 20260506103105 | 66 | 263 | 2.6 | 7.8 | 0.00 | 0.02 | 0.00 | 77 | 1009.2 |
| 20260506102605 | 66 | 260 | 4.3 | 10.4 | 0.00 | 0.02 | 0.00 | 77 | 1009.2 |
| 20260506102104 | 66 | 232 | 3.5 | 8.7 | 0.00 | 0.02 | 0.00 | 77 | 1009.1 |
| 20260506101104 | 66 | 275 | 3.5 | 10.4 | 0.00 | 0.02 | 0.00 | 77 | 1009.1 |
| 20260506100604 | 66 | 222 | 4.3 | 11.3 | 0.00 | 0.02 | 0.00 | 77 | 1008.9 |
| 20260506100104 | 65 | 247 | 1.7 | 10.4 | 0.00 | 0.02 | 0.00 | 77 | 1009.0 |
| 20260506095106 | 65 | 263 | 2.6 | 6.1 | 0.00 | 0.02 | 0.00 | 77 | 1009.0 |
| 20260506093605 | 65 | 243 | 1.7 | 6.1 | 0.00 | 0.02 | 0.00 | 77 | 1009.2 |
| 20260506093104 | 65 | 268 | 1.7 | 7.0 | 0.00 | 0.02 | 0.00 | 77 | 1009.1 |
| 20260506092605 | 65 | 250 | 2.6 | 7.8 | 0.00 | 0.02 | 0.00 | 76 | 1009.1 |
| 20260506092104 | 65 | 242 | 1.7 | 7.0 | 0.00 | 0.02 | 0.00 | 76 | 1009.1 |
| 20260506091604 | 65 | 227 | 1.7 | 7.8 | 0.00 | 0.02 | 0.00 | 75 | 1009.0 |
| 20260506090605 | 65 | 224 | 0.9 | 2.6 | 0.00 | 0.02 | 0.00 | 74 | 1009.1 |
| 20260506090104 | 65 | 260 | 2.6 | 6.1 | 0.00 | 0.02 | 0.00 | 74 | 1009.1 |
| 20260506085604 | 66 | 216 | 0.9 | 4.3 | 0.00 | 0.02 | 0.00 | 73 | 1009.1 |
| 20260506084605 | 66 | 248 | 2.6 | 8.7 | 0.00 | 0.02 | 0.00 | 72 | 1009.2 |
| 20260506084104 | 66 | 278 | 0.9 | 7.0 | 0.00 | 0.02 | 0.00 | 71 | 1009.2 |
| 20260506083606 | 66 | 252 | 1.7 | 5.2 | 0.00 | 0.02 | 0.00 | 71 | 1009.3 |
| 20260506083105 | 66 | 249 | 1.7 | 6.1 | 0.00 | 0.02 | 0.00 | 71 | 1009.3 |
| 20260506082105 | 67 | 218 | 0.9 | 6.1 | 0.00 | 0.02 | 0.00 | 70 | 1009.4 |
| 20260506081104 | 67 | 250 | 1.7 | 2.6 | 0.00 | 0.02 | 0.00 | 69 | 1009.4 |
| 20260506080104 | 67 | 238 | 0.9 | 7.0 | 0.00 | 0.02 | 0.00 | 68 | 1009.4 |
| 20260506073104 | 67 | 268 | 2.6 | 6.1 | 0.00 | 0.02 | 0.00 | 67 | 1009.4 |
| 20260506072104 | 67 | 279 | 1.7 | 4.3 | 0.00 | 0.02 | 0.00 | 67 | 1009.3 |
| 20260506071604 | 67 | 236 | 1.7 | 5.2 | 0.00 | 0.02 | 0.00 | 67 | 1009.3 |
| 20260506071104 | 68 | 277 | 1.7 | 5.2 | 0.00 | 0.02 | 0.00 | 67 | 1009.4 |
| 20260506070604 | 68 | 247 | 1.7 | 7.0 | 0.00 | 0.02 | 0.00 | 66 | 1009.6 |
| 20260506070106 | 68 | 284 | 1.7 | 5.2 | 0.00 | 0.02 | 0.00 | 66 | 1009.6 |
| 20260506061605 | 69 | 269 | 0.9 | 6.1 | 0.00 | 0.02 | 0.00 | 63 | 1009.6 |
| 20260506061105 | 69 | 236 | 1.7 | 7.0 | 0.00 | 0.02 | 0.00 | 63 | 1009.6 |
| 20260506060605 | 69 | 240 | 2.6 | 4.3 | 0.00 | 0.02 | 0.00 | 63 | 1009.6 |
| 20260506051104 | 70 | 205 | 2.6 | 7.8 | 0.00 | 0.02 | 0.00 | 61 | 1010.0 |
| 20260506050604 | 70 | 257 | 0.9 | 7.0 | 0.00 | 0.02 | 0.00 | 61 | 1010.1 |
| 20260506050105 | 70 | 250 | 1.7 | 7.8 | 0.00 | 0.02 | 0.00 | 61 | 1010.1 |
| 20260506045104 | 70 | 273 | 2.6 | 10.4 | 0.00 | 0.02 | 0.00 | 60 | 1010.1 |
| 20260506044104 | 71 | 251 | 2.6 | 14.8 | 0.00 | 0.02 | 0.00 | 59 | 1010.1 |
| 20260506043604 | 71 | 277 | 5.2 | 10.4 | 0.00 | 0.02 | 0.00 | 59 | 1010.1 |
| 20260506041604 | 71 | 252 | 2.6 | 7.8 | 0.00 | 0.02 | 0.00 | 57 | 1010.0 |
| 20260506041105 | 71 | 276 | 1.7 | 6.1 | 0.00 | 0.02 | 0.00 | 57 | 1009.9 |
| 20260506040605 | 72 | 267 | 4.3 | 12.2 | 0.00 | 0.02 | 0.00 | 56 | 1009.8 |
| 20260506040105 | 72 | 233 | 1.7 | 5.2 | 0.00 | 0.02 | 0.00 | 56 | 1009.8 |
| 20260506035606 | 72 | 238 | 1.7 | 17.4 | 0.00 | 0.02 | 0.02 | 56 | 1009.8 |
| 20260506034605 | 72 | 306 | 1.7 | 12.2 | 0.00 | 0.02 | 0.02 | 54 | 1009.9 |
| 20260506034104 | 72 | 283 | 4.3 | 12.2 | 0.00 | 0.02 | 0.02 | 53 | 1009.8 |
| 20260506033605 | 72 | 257 | 4.3 | 10.4 | 0.00 | 0.02 | 0.02 | 53 | 1009.7 |
| 20260506033105 | 72 | 288 | 0.9 | 10.4 | 0.00 | 0.02 | 0.02 | 52 | 1009.7 |
| 20260506032604 | 72 | 237 | 4.3 | 10.4 | 0.00 | 0.02 | 0.02 | 52 | 1009.7 |
| 20260506032104 | 73 | 255 | 2.6 | 7.0 | 0.00 | 0.02 | 0.02 | 51 | 1009.8 |
| 20260506031604 | 73 | 228 | 2.6 | 6.1 | 0.00 | 0.02 | 0.02 | 50 | 1009.7 |
| 20260506031104 | 73 | 259 | 2.6 | 7.8 | 0.00 | 0.02 | 0.02 | 50 | 1009.6 |
| 20260506030604 | 73 | 282 | 2.6 | 6.1 | 0.00 | 0.02 | 0.02 | 50 | 1009.6 |
| 20260506030104 | 74 | 277 | 1.7 | 6.1 | 0.00 | 0.02 | 0.02 | 49 | 1009.6 |
| 20260506025605 | 74 | 312 | 2.6 | 12.2 | 0.00 | 0.02 | 0.02 | 49 | 1009.6 |
| 20260506025104 | 74 | 275 | 2.6 | 12.2 | 0.00 | 0.02 | 0.02 | 48 | 1009.5 |
| 20260506024604 | 74 | 265 | 2.6 | 10.4 | 0.00 | 0.02 | 0.02 | 48 | 1009.4 |
| 20260506024104 | 74 | 218 | 4.3 | 13.9 | 0.00 | 0.02 | 0.02 | 48 | 1009.5 |
| 20260506023604 | 74 | 242 | 5.2 | 11.3 | 0.00 | 0.02 | 0.02 | 47 | 1009.4 |
| 20260506023104 | 75 | 258 | 3.5 | 13.0 | 0.00 | 0.02 | 0.02 | 47 | 1009.4 |
| 20260506022604 | 75 | 263 | 2.6 | 11.3 | 0.00 | 0.02 | 0.02 | 47 | 1009.4 |
| 20260506022104 | 75 | 253 | 3.5 | 10.4 | 0.00 | 0.02 | 0.02 | 47 | 1009.4 |
| 20260506021604 | 75 | 251 | 4.3 | 13.0 | 0.00 | 0.02 | 0.02 | 47 | 1009.4 |
| 20260506021105 | 75 | 244 | 4.3 | 13.0 | 0.00 | 0.02 | 0.02 | 47 | 1009.4 |
| 20260506020605 | 75 | 228 | 5.2 | 15.6 | 0.00 | 0.02 | 0.02 | 46 | 1009.3 |
| 20260506020104 | 75 | 241 | 4.3 | 8.7 | 0.00 | 0.02 | 0.02 | 46 | 1009.4 |
| 20260506015604 | 75 | 249 | 5.2 | 17.4 | 0.00 | 0.02 | 0.02 | 45 | 1009.3 |
| 20260506015104 | 75 | 231 | 4.3 | 12.2 | 0.00 | 0.02 | 0.02 | 45 | 1009.3 |
| 20260506014604 | 75 | 251 | 2.6 | 10.4 | 0.00 | 0.02 | 0.02 | 44 | 1009.3 |
| 20260506014104 | 75 | 253 | 1.7 | 5.2 | 0.00 | 0.02 | 0.02 | 44 | 1009.3 |
| 20260506013604 | 75 | 252 | 2.6 | 7.0 | 0.00 | 0.02 | 0.02 | 44 | 1009.3 |
| 20260506013104 | 76 | 247 | 1.7 | 6.1 | 0.00 | 0.02 | 0.02 | 43 | 1009.2 |
| 20260506012605 | 76 | 239 | 2.6 | 7.8 | 0.00 | 0.02 | 0.02 | 42 | 1009.1 |
| 20260506011604 | 76 | 241 | 2.6 | 5.2 | 0.00 | 0.02 | 0.02 | 42 | 1009.1 |
| 20260506011104 | 76 | 253 | 1.7 | 2.6 | 0.00 | 0.02 | 0.02 | 42 | 1009.0 |
| 20260506010604 | 76 | 264 | 2.6 | 7.0 | 0.00 | 0.02 | 0.02 | 42 | 1008.9 |
| 20260506010104 | 76 | 243 | 1.7 | 7.0 | 0.00 | 0.02 | 0.02 | 42 | 1008.8 |
| 20260506005605 | 76 | 246 | 1.7 | 7.0 | 0.00 | 0.02 | 0.02 | 42 | 1008.9 |
| 20260506005105 | 76 | 243 | 0.9 | 2.6 | 0.00 | 0.02 | 0.02 | 42 | 1008.9 |
| 20260506004604 | 76 | 250 | 1.7 | 6.1 | 0.00 | 0.02 | 0.02 | 41 | 1008.9 |
| 20260506003604 | 76 | 262 | 2.6 | 13.0 | 0.00 | 0.02 | 0.02 | 41 | 1008.8 |
| 20260506003104 | 76 | 272 | 1.7 | 4.3 | 0.00 | 0.02 | 0.02 | 41 | 1008.8 |
| 20260506002604 | 76 | 239 | 1.7 | 4.3 | 0.00 | 0.02 | 0.02 | 41 | 1008.7 |
| 20260506001104 | 76 | 272 | 2.6 | 8.7 | 0.00 | 0.02 | 0.02 | 40 | 1008.6 |
| 20260506000605 | 76 | 252 | 1.7 | 11.3 | 0.00 | 0.02 | 0.02 | 39 | 1008.6 |
| 20260506000105 | 77 | 273 | 2.6 | 7.8 | 0.00 | 0.02 | 0.02 | 39 | 1008.5 |
| 20260505235605 | 77 | 257 | 4.3 | 12.2 | 0.00 | 0.02 | 0.02 | 39 | 1008.5 |
| 20260505235104 | 77 | 246 | 4.3 | 13.0 | 0.00 | 0.02 | 0.02 | 38 | 1008.5 |
| 20260505234606 | 77 | 270 | 4.3 | 12.2 | 0.00 | 0.02 | 0.02 | 38 | 1008.4 |
| 20260505234105 | 78 | 245 | 2.6 | 10.4 | 0.00 | 0.02 | 0.02 | 37 | 1008.3 |
| 20260505233604 | 78 | 263 | 4.3 | 14.8 | 0.00 | 0.02 | 0.02 | 37 | 1008.2 |
| 20260505233104 | 78 | 264 | 2.6 | 17.4 | 0.00 | 0.02 | 0.02 | 37 | 1008.2 |
| 20260505232104 | 78 | 273 | 5.2 | 12.2 | 0.00 | 0.02 | 0.02 | 37 | 1008.0 |
| 20260505231605 | 79 | 272 | 6.1 | 11.3 | 0.00 | 0.02 | 0.02 | 37 | 1008.0 |
| 20260505231104 | 79 | 242 | 3.5 | 10.4 | 0.00 | 0.02 | 0.02 | 37 | 1008.0 |
| 20260505230604 | 79 | 259 | 5.2 | 15.6 | 0.00 | 0.02 | 0.02 | 36 | 1007.9 |
| 20260505230104 | 79 | 251 | 8.7 | 19.1 | 0.00 | 0.02 | 0.02 | 36 | 1007.8 |
| 20260505225106 | 80 | 264 | 6.1 | 17.4 | 0.00 | 0.02 | 0.02 | 36 | 1007.6 |
| 20260505224605 | 80 | 280 | 6.1 | 17.4 | 0.00 | 0.02 | 0.02 | 35 | 1007.6 |
| 20260505224104 | 80 | 243 | 3.5 | 17.4 | 0.00 | 0.02 | 0.02 | 37 | 1007.5 |
| 20260505223609 | 80 | 249 | 4.3 | 8.7 | 0.00 | 0.02 | 0.02 | 36 | 1007.5 |
| 20260505223104 | 80 | 251 | 2.6 | 8.7 | 0.00 | 0.02 | 0.02 | 36 | 1007.4 |
| 20260505222604 | 80 | 276 | 8.7 | 20.0 | 0.00 | 0.02 | 0.02 | 36 | 1007.4 |
| 20260505222106 | 81 | 288 | 5.2 | 14.8 | 0.00 | 0.02 | 0.02 | 36 | 1007.4 |
| 20260505220605 | 81 | 266 | 2.6 | 17.4 | 0.00 | 0.02 | 0.02 | 37 | 1007.1 |
| 20260505220105 | 81 | 263 | 3.5 | 8.7 | 0.00 | 0.02 | 0.02 | 36 | 1007.1 |
| 20260505215604 | 80 | 259 | 3.5 | 15.6 | 0.00 | 0.02 | 0.02 | 37 | 1007.0 |
| 20260505214105 | 81 | 255 | 2.6 | 14.8 | 0.00 | 0.02 | 0.02 | 36 | 1007.1 |
| 20260505213605 | 81 | 252 | 4.3 | 11.3 | 0.00 | 0.02 | 0.02 | 38 | 1007.0 |
| 20260505212603 | 81 | 246 | 5.2 | 10.4 | 0.00 | 0.02 | 0.02 | 37 | 1007.0 |
| 20260505211604 | 82 | 240 | 4.3 | 12.2 | 0.00 | 0.02 | 0.02 | 35 | 1006.9 |
| 20260505211104 | 83 | 254 | 4.3 | 14.8 | 0.00 | 0.02 | 0.02 | 36 | 1006.8 |
| 20260505210604 | 83 | 253 | 7.0 | 17.4 | 0.00 | 0.02 | 0.02 | 35 | 1006.7 |
| 20260505210105 | 83 | 279 | 8.7 | 18.2 | 0.00 | 0.02 | 0.02 | 34 | 1006.7 |
| 20260505205605 | 84 | 262 | 7.0 | 17.4 | 0.00 | 0.02 | 0.02 | 36 | 1006.5 |
| 20260505205105 | 83 | 268 | 5.2 | 17.4 | 0.00 | 0.02 | 0.02 | 37 | 1006.5 |
| 20260505204605 | 83 | 225 | 5.2 | 10.4 | 0.00 | 0.02 | 0.02 | 36 | 1006.5 |
| 20260505204104 | 83 | 259 | 6.1 | 10.4 | 0.00 | 0.02 | 0.02 | 37 | 1006.5 |
| 20260505203104 | 85 | 235 | 3.5 | 10.4 | 0.00 | 0.02 | 0.02 | 37 | 1006.6 |
| 20260505202104 | 83 | 269 | 4.3 | 11.3 | 0.00 | 0.02 | 0.02 | 37 | 1006.8 |
| 20260505201109 | 83 | 269 | 7.8 | 13.0 | 0.00 | 0.02 | 0.02 | 36 | 1007.0 |
| 20260505200105 | 84 | 237 | 7.0 | 11.3 | 0.00 | 0.02 | 0.02 | 35 | 1007.0 |
| 20260505195604 | 83 | 254 | 5.2 | 14.8 | 0.00 | 0.02 | 0.02 | 36 | 1006.9 |
| 20260505195105 | 83 | 238 | 4.3 | 7.0 | 0.00 | 0.02 | 0.02 | 38 | 1007.1 |
| 20260505194604 | 83 | 259 | 7.8 | 17.4 | 0.00 | 0.02 | 0.02 | 37 | 1007.1 |
| 20260505194104 | 83 | 266 | 6.1 | 13.9 | 0.00 | 0.02 | 0.02 | 36 | 1007.0 |
| 20260505193604 | 83 | 267 | 2.6 | 17.4 | 0.00 | 0.02 | 0.02 | 38 | 1007.2 |